Weather Roundup
Issued by NWS Springfield, MO

Home | Current Version | Previous Version | Text Only | Print | Product List | Glossary On
Versions: 1 2 3 4 5 6 7 8 9 10 11 12 13 14 15 16 17 18 19 20 21 22 23 24 25 26 27 28 29 30 31 32 33 34 35 36 37 38 39 40 41 42 43 44 45 46 47 48 49 50
000
NZUS99 KSGF 302007
HRRSGF

HOURLY WEATHER
NATIONAL WEATHER SERVICE SPRINGFIELD MO
300 PM CDT SAT JUL 30 2016

......SGF CWA......

CITY           SKY/WX    TMP DP  RH WIND       PRES   REMARKS
SPRINGFIELD    PTSUNNY   85  65  51 SW5       30.02S
JOPLIN         CLOUDY    86  69  56 CALM      30.00F HX  90
WEST PLAINS    PTSUNNY   88  66  48 W5        30.03F HX  90
ROLLA          MOSUNNY   83  67  58 W12       30.00F
OSAGE BEACH    MOSUNNY   85  68  56 NW6       30.01F
BRANSON        CLOUDY    82  70  65 W5        30.05S

......SURROUNDING SGF CWA......

CITY           SKY/WX    TMP DP  RH WIND       PRES   REMARKS
CHANUTE        MOSUNNY   86  71  60 SE8G16    29.97F HX  91
PARSONS        CLOUDY    85  70  60 SE3       29.98F
COFFEYVILLE    CLOUDY    86  72  62 E7        29.95F HX  92
EMPORIA        SUNNY     86  69  56 SE12      29.97F HX  90
GROVE OK       CLOUDY    73  70  88 SE8       30.00F
ROGERS AR      LGT RAIN  70  66  88 SE5       30.04F
SILOAM SPRINGS CLOUDY    70  61  73 CALM      30.01F
HARRISON AR    CLOUDY    81  71  71 W5        30.05R
NEAR YELLVILLE PTSUNNY   88  70  55 NE3       29.98S HX  92

......KANSAS AND MISSOURI......

CITY           SKY/WX    TMP DP  RH WIND       PRES   REMARKS
KANSAS CTY INT PTSUNNY   83  64  52 VRB3      30.02S
DOWNTOWN KC    MOSUNNY   88  63  43 NW5       30.00S
COLUMBIA       SUNNY     82  65  56 NW10      30.01F
SEDALIA        MOSUNNY   84  68  58 NW7       30.02F
ST JOSEPH      CLOUDY    78  63  59 SW5       30.00F
ST LOUIS       PTSUNNY   85  65  51 NW9       29.99F
SPIRIT OF STL  PTSUNNY   85  66  53 W10       29.97F
KIRKSVILLE     CLOUDY    79  63  57 NW3       30.02F
WICHITA        MOSUNNY   87  66  49 S8        29.96F
TOPEKA         TSTM      72  65  78 NE8       30.01R
OLATHE         CLOUDY    82  65  56 CALM      30.02R

......TENNESSEE......

CITY           SKY/WX    TMP DP  RH WIND       PRES   REMARKS
MEMPHIS        MOSUNNY   88  73  61 W8        29.98F HX  95
NASHVILLE      PTSUNNY   86  69  56 S6        29.99F HX  90

......ARKANSAS.......

CITY           SKY/WX    TMP DP  RH WIND       PRES   REMARKS
FAYETTEVILLE   CLOUDY    69  69 100 E3        30.03F
FT SMITH       CLOUDY    84  69  60 NW9       29.96F
LITTLE ROCK    PTSUNNY   93  72  50 NW5       29.96F HX 101

......OKLAHOMA.......

CITY           SKY/WX    TMP DP  RH WIND       PRES   REMARKS
TULSA          CLOUDY    79  73  82 SE12      29.94F
PONCA CITY     SUNNY     87  70  56 VRB6      29.94F HX  92
MCALESTER      MOSUNNY   93  74  53 VRB6      29.95F HX 103
OKLAHOMA CITY  MOSUNNY   87  74  64 S7        29.97F HX  95

......IOWA............

CITY           SKY/WX    TMP DP  RH WIND       PRES   REMARKS
DES MOINES     PTSUNNY   82  64  54 VRB3      29.99F
QUAD CITIES    PTSUNNY   80  64  58 NE9       29.97F

......ILLINOIS........

CITY           SKY/WX    TMP DP  RH WIND       PRES   REMARKS
QUINCY         SUNNY     80  68  66 SW6       29.99F
CHICAGO        PTSUNNY   76  64  66 NE12      29.98S




USA.gov is the U.S. government's official web portal to all federal, state and local government web resources and services.